#timestamp,LO_Frequency,Hit 
1501275615.0,286047037.3,N
1501275615.9,286047037.3,N
1501275635.7,286047035.4,N
1501275655.6,286047037.2,N
1501275675.4,286047039.0,N
1501275695.2,286047039.3,Y
1501275715.1,286047002.8,N
1501275716.0,286047002.8,N
1501275735.8,286047000.2,N
1501275755.6,286047000.3,N
1501275775.5,286047000.4,N
1501275795.3,286047001.0,N
1501275815.1,286047001.2,N
1501275835.9,286047001.0,N
1501275855.7,286046998.4,N
1501275875.5,286047000.4,N
1501275895.4,286046999.2,N
1501275915.2,286046997.5,N
1501275935.0,286046995.1,N
1501275935.9,286046995.1,N
1501275955.7,286046996.9,N
1501275975.6,286046999.1,N
1501275995.4,286046998.9,N
1501276015.2,286046997.3,N
1501276035.1,286046997.2,N
1501276036.0,286046997.2,N
1501276055.8,286047001.1,N
1501276075.6,286047000.8,N
1501276095.5,286046998.9,N
1501276115.3,286046998.9,N
1501276135.1,286046996.9,N
1501276155.9,286046996.3,N
1501276175.7,286046992.4,N
1501276195.5,286046993.5,N
1501276215.3,286046997.8,N
1501276235.2,286047001.1,N
1501276255.0,286047000.1,N
1501276255.9,286047000.1,N
1501276275.7,286047000.3,N
1501276295.6,286047002.3,N
1501276315.4,286047004.0,N
1501276335.2,286047005.3,N
1501276355.1,286047003.4,N
1501276356.0,286047003.4,N
1501276375.8,286047002.9,N
1501276395.6,286047005.3,N
1501276415.5,286047005.4,N
1501276435.3,286047004.0,N
1501276455.1,286047003.8,N
1501276475.9,286047003.7,N
1501276495.7,286047005.3,N
1501276515.5,286047003.5,N
1501276535.3,286047002.7,N
1501276555.2,286047001.7,N
1501276575.9,286047000.1,N
1501276595.7,286047002.4,N
1501276615.6,286047000.1,N
1501276635.4,286047000.1,N
1501276655.2,286047000.7,N
1501276675.1,286047002.3,N
1501276676.0,286047002.3,N
1501276695.8,286046999.7,N
1501276715.6,286047000.2,N
1501276735.4,286047001.3,N
1501276755.3,286047003.8,N
1501276775.1,286047003.6,N
1501276795.8,286047003.1,N
1501276815.7,286047003.2,N
1501276835.5,286047001.8,N
1501276855.3,286047005.5,N
1501276875.2,286047003.8,N
1501276895.9,286047005.1,N
1501276915.7,286047006.7,N
1501276935.6,286047006.7,N
1501276955.4,286047008.2,N
1501276975.2,286047007.7,N
1501276995.0,286047008.5,N
1501276996.0,286047008.5,N
1501277015.8,286047010.7,N
1501277035.6,286047008.5,N
1501277055.4,286047007.7,N
1501277075.3,286047010.0,N
1501277095.1,286047011.1,N
1501277115.8,286047013.6,N
1501277135.7,286047011.5,N
1501277155.5,286047009.9,N
1501277175.3,286047012.4,N
1501277195.2,286047011.5,N
1501277215.9,286047013.7,N
1501277235.7,286047012.2,N
1501277255.6,286047012.7,N
1501277275.4,286047014.5,N
1501277295.2,286047014.8,N
1501277315.0,286047014.4,N
1501277315.9,286047014.4,N
1501277335.8,286047014.8,N
1501277355.6,286047018.8,N
1501277375.4,286047018.7,N
1501277395.3,286047016.2,N
1501277415.1,286047018.5,N
1501277435.8,286047018.6,N
1501277455.7,286047020.3,N
1501277475.5,286047017.6,N
1501277495.3,286047017.3,N
1501277515.2,286047020.1,N
1501277535.9,286047017.4,N
1501277555.7,286047017.6,N
1501277575.6,286047020.2,N
1501277595.4,286047019.2,N
1501277615.2,286047021.1,N
1501277635.0,286047020.5,N
1501277635.9,286047020.5,N
1501277655.8,286047022.7,N
1501277675.6,286047024.4,N
1501277695.4,286047022.8,N
1501277715.3,286047021.3,N
1501277735.1,286047023.1,N
1501277755.8,286047022.4,N
1501277775.7,286047024.5,N
1501277795.5,286047023.7,N
1501277815.3,286047023.6,N
1501277835.2,286047022.0,N
1501277855.9,286047020.8,N
1501277875.7,286047023.3,N
1501277895.5,286047021.0,N
1501277915.4,286047022.2,N
1501277935.2,286047023.5,N
1501277955.0,286047022.4,N
1501277955.9,286047022.4,N
1501277975.8,286047024.5,N
1501277995.6,286047025.2,N
1501278015.4,286047020.5,N
1501278035.3,286047022.9,N
1501278055.1,286047025.0,N
1501278056.0,286047025.0,N
1501278075.8,286047025.2,N
1501278095.7,286047022.3,N
1501278115.5,286047024.5,N
1501278135.3,286047024.3,N
1501278155.1,286047025.0,N
1501278175.9,286047023.3,N
1501278195.7,286047024.8,N
1501278215.5,286047024.3,N
1501278235.4,286047023.8,N
1501278255.2,286047025.0,N
1501278275.0,286047024.1,N
1501278275.9,286047024.1,N
1501278295.8,286047022.5,N
1501278315.6,286047022.6,N
1501278335.4,286047025.2,N
1501278355.3,286047022.6,N
1501278375.1,286047019.5,N
1501278376.0,286047019.5,N
1501278395.8,286047022.4,N
1501278415.6,286047022.7,N
1501278435.5,286047024.4,N
1501278455.3,286047026.4,N
1501278475.1,286047023.8,N
1501278495.9,286047026.4,N
1501278515.7,286047025.6,N
1501278535.5,286047028.4,N
1501278555.4,286047029.0,N
1501278575.2,286047030.4,N
1501278595.0,286047031.0,N
1501278595.9,286047031.0,N
1501278615.8,286047031.3,N
1501278635.6,286047030.5,N
1501278655.4,286047029.1,N
1501278675.2,286047027.3,N
1501278695.1,286047025.9,N
1501278696.0,286047025.9,N
1501278715.8,286047025.3,N
1501278735.6,286047030.0,N
1501278755.5,286047027.0,N
1501278775.3,286047029.9,N
1501278795.1,286047028.2,N
1501278815.9,286047027.9,N
1501278835.7,286047026.4,N
1501278855.5,286047022.6,N
1501278875.4,286047017.7,N
1501278895.2,286047018.4,N
1501278915.0,286047016.1,N
1501278915.9,286047016.1,N
1501278935.8,286047017.9,N
1501278955.6,286047019.3,N
1501278975.4,286047021.0,N
1501278995.3,286047020.0,N
1501279015.1,286047017.3,N
1501279016.0,286047017.3,N
1501279035.8,286047016.7,N
1501279055.6,286047016.6,N
1501279075.5,286047014.2,N
1501279095.3,286047017.2,N
1501279115.1,286047020.3,N
1501279135.9,286047019.3,N
1501279155.7,286047015.7,N
1501279175.5,286047016.7,N
1501279195.4,286047018.4,N
